When you browse on this site, cookies collect data to enhance your experience and personalize the content and advertising you see.
Visit our Privacy Policy to learn more. By continuing to use the site, you agree to this use of cookies and data.
  • In Belgien
  • Länderverzeichnis
  • Für 7 Tage
  • Wassertemperatur
  • Satellitenkarten
  • Wetterkarte
  • Widgets
  • user-avatar
    Anmelden

    Stündliche Wetter Rachanie

    Heute, 19 Februar, Dienstag

    Zeit Temperatur Niederschläge Wind Luftdruck Luftfeuchtigkeit
    00:00 +2°C° 0 mm 3 m/S 746 mmHg 92%
    01:00 +2°C° 0 mm 3 m/S 746 mmHg 93%
    02:00 +2°C° 0 mm 3 m/S 745 mmHg 93%
    03:00 +1°C° 0 mm 3 m/S 745 mmHg 93%
    04:00 +1°C° 0 mm 3 m/S 745 mmHg 93%
    05:00 +1°C° 0 mm 3 m/S 745 mmHg 93%
    06:00 +1°C° 0 mm 3 m/S 744 mmHg 92%
    07:00 0°C° 0 mm 3 m/S 744 mmHg 91%
    08:00 0°C° 0 mm 3 m/S 744 mmHg 90%
    09:00 +2°C° 0 mm 3 m/S 744 mmHg 83%
    10:00 +3°C° 0 mm 3 m/S 744 mmHg 76%
    11:00 +5°C° 0 mm 4 m/S 744 mmHg 70%
    12:00 +6°C° 0 mm 4 m/S 743 mmHg 66%
    13:00 +7°C° 0 mm 4 m/S 743 mmHg 63%
    14:00 +10°C° 0 mm 4 m/S 743 mmHg 59%
    15:00 +8°C° 0 mm 4 m/S 742 mmHg 61%
    16:00 +8°C° 0 mm 4 m/S 742 mmHg 63%
    17:00 +9°C° 0 mm 3 m/S 741 mmHg 65%
    18:00 +7°C° 0 mm 4 m/S 741 mmHg 70%
    19:00 +5°C° 0 mm 4 m/S 741 mmHg 75%
    20:00 +4°C° 0 mm 4 m/S 741 mmHg 79%
    21:00 +3°C° 0 mm 5 m/S 741 mmHg 80%
    22:00 +3°C° 0 mm 5 m/S 741 mmHg 81%
    23:00 +3°C° 0 mm 5 m/S 741 mmHg 82%

    Morgen, 20 Februar, Mittwoch

    Zeit Temperatur Niederschläge Wind Luftdruck Luftfeuchtigkeit
    00:00 +2°C° 0 mm 5 m/S 741 mmHg 83%
    01:00 +2°C° 0 mm 5 m/S 741 mmHg 84%
    02:00 +2°C° 0 mm 5 m/S 741 mmHg 85%
    03:00 +2°C° 0.4 mm 5 m/S 741 mmHg 87%
    04:00 +2°C° 0.4 mm 5 m/S 741 mmHg 88%
    05:00 +2°C° 0.4 mm 5 m/S 741 mmHg 89%
    06:00 +2°C° 0.1 mm 5 m/S 741 mmHg 90%
    07:00 +2°C° 0.1 mm 5 m/S 741 mmHg 91%
    08:00 +1°C° 0.1 mm 5 m/S 741 mmHg 92%
    09:00 +2°C° 0.1 mm 5 m/S 742 mmHg 89%
    10:00 +2°C° 0.1 mm 6 m/S 742 mmHg 85%
    11:00 +3°C° 0.1 mm 6 m/S 742 mmHg 82%
    12:00 +3°C° 0.1 mm 6 m/S 743 mmHg 77%
    13:00 +3°C° 0.1 mm 7 m/S 743 mmHg 72%
    14:00 +4°C° 0.1 mm 7 m/S 743 mmHg 68%
    15:00 +4°C° 0.1 mm 7 m/S 743 mmHg 68%
    16:00 +3°C° 0.1 mm 6 m/S 743 mmHg 69%
    17:00 +3°C° 0.1 mm 6 m/S 743 mmHg 69%
    18:00 +3°C° 0 mm 6 m/S 744 mmHg 72%
    19:00 +2°C° 0 mm 5 m/S 744 mmHg 74%
    20:00 +1°C° 0 mm 5 m/S 744 mmHg 77%
    21:00 +2°C° 0 mm 5 m/S 744 mmHg 78%
    22:00 +2°C° 0 mm 5 m/S 745 mmHg 78%
    23:00 +2°C° 0 mm 5 m/S 745 mmHg 79%

    übermorgen, 21 Februar, Donnerstag

    Zeit Temperatur Niederschläge Wind Luftdruck Luftfeuchtigkeit
    00:00 +2°C° 0 mm 5 m/S 745 mmHg 79%
    01:00 +2°C° 0 mm 5 m/S 745 mmHg 79%
    02:00 +2°C° 0 mm 5 m/S 745 mmHg 79%
    03:00 +2°C° 0 mm 5 m/S 745 mmHg 80%
    04:00 +2°C° 0 mm 5 m/S 745 mmHg 80%
    05:00 +2°C° 0 mm 5 m/S 745 mmHg 81%
    06:00 +2°C° 0 mm 5 m/S 745 mmHg 85%
    07:00 +2°C° 0 mm 5 m/S 745 mmHg 88%
    08:00 +2°C° 0 mm 5 m/S 745 mmHg 92%
    09:00 +2°C° 0.1 mm 5 m/S 745 mmHg 87%
    10:00 +3°C° 0.1 mm 6 m/S 745 mmHg 82%
    11:00 +4°C° 0.1 mm 6 m/S 745 mmHg 77%
    12:00 +4°C° 0.3 mm 6 m/S 745 mmHg 77%
    13:00 +4°C° 0.3 mm 6 m/S 744 mmHg 78%
    14:00 +4°C° 0.3 mm 6 m/S 744 mmHg 78%
    15:00 +4°C° 0.2 mm 6 m/S 744 mmHg 81%
    16:00 +4°C° 0.2 mm 6 m/S 744 mmHg 83%
    17:00 +3°C° 0.2 mm 6 m/S 743 mmHg 85%
    18:00 +3°C° 1 mm 5 m/S 743 mmHg 87%
    19:00 +3°C° 1 mm 5 m/S 743 mmHg 89%
    20:00 +3°C° 1 mm 5 m/S 743 mmHg 91%
    21:00 +3°C° 1 mm 5 m/S 743 mmHg 92%
    22:00 +3°C° 1 mm 5 m/S 743 mmHg 93%
    23:00 +4°C° 1 mm 4 m/S 743 mmHg 94%

    22 Februar, Freitag

    Zeit Temperatur Niederschläge Wind Luftdruck Luftfeuchtigkeit
    00:00 +4°C° 0.5 mm 4 m/S 744 mmHg 94%
    01:00 +4°C° 0.5 mm 4 m/S 744 mmHg 94%
    02:00 +4°C° 0.5 mm 4 m/S 744 mmHg 94%
    03:00 +1°C° 0.4 mm 5 m/S 745 mmHg 91%
    04:00 -1°C° 0.4 mm 5 m/S 745 mmHg 88%
    05:00 -3°C° 0.4 mm 6 m/S 746 mmHg 85%
    06:00 -4°C° 0 mm 6 m/S 747 mmHg 81%
    07:00 -4°C° 0 mm 7 m/S 748 mmHg 76%
    08:00 -6°C° 0 mm 7 m/S 750 mmHg 72%
    09:00 -6°C° 0 mm 7 m/S 751 mmHg 68%
    10:00 -4°C° 0 mm 6 m/S 752 mmHg 65%
    11:00 -4°C° 0 mm 6 m/S 753 mmHg 62%
    12:00 -4°C° 0 mm 6 m/S 754 mmHg 60%
    13:00 -4°C° 0 mm 6 m/S 754 mmHg 58%
    14:00 -4°C° 0 mm 6 m/S 755 mmHg 56%
    15:00 -4°C° 0 mm 6 m/S 755 mmHg 54%
    16:00 -5°C° 0 mm 6 m/S 756 mmHg 52%
    17:00 -5°C° 0 mm 6 m/S 757 mmHg 50%
    18:00 -5°C° 0 mm 5 m/S 757 mmHg 51%
    19:00 -6°C° 0 mm 5 m/S 758 mmHg 51%
    20:00 -5°C° 0 mm 4 m/S 758 mmHg 51%
    21:00 -5°C° 0 mm 4 m/S 759 mmHg 50%
    22:00 -5°C° 0 mm 4 m/S 759 mmHg 49%
    23:00 -5°C° 0 mm 4 m/S 760 mmHg 48%

    23 Februar, Samstag

    Zeit Temperatur Niederschläge Wind Luftdruck Luftfeuchtigkeit
    00:00 -5°C° 0 mm 4 m/S 760 mmHg 47%
    01:00 -5°C° 0 mm 3 m/S 760 mmHg 46%
    02:00 -5°C° 0 mm 3 m/S 760 mmHg 45%
    03:00 -5°C° 0 mm 3 m/S 760 mmHg 45%
    04:00 -5°C° 0 mm 3 m/S 760 mmHg 46%
    05:00 -4°C° 0 mm 2 m/S 760 mmHg 46%
    06:00 -4°C° 0 mm 2 m/S 760 mmHg 45%
    07:00 -4°C° 0 mm 2 m/S 760 mmHg 45%
    08:00 -4°C° 0 mm 2 m/S 760 mmHg 44%
    09:00 -3°C° 0 mm 2 m/S 760 mmHg 39%
    10:00 -2°C° 0 mm 3 m/S 759 mmHg 35%
    11:00 -1°C° 0 mm 3 m/S 759 mmHg 30%
    12:00 -1°C° 0 mm 3 m/S 759 mmHg 32%
    13:00 -1°C° 0 mm 3 m/S 758 mmHg 33%
    14:00 -2°C° 0 mm 4 m/S 758 mmHg 35%
    15:00 -3°C° 0 mm 4 m/S 757 mmHg 42%
    16:00 -3°C° 0 mm 4 m/S 756 mmHg 48%
    17:00 -3°C° 0 mm 4 m/S 756 mmHg 55%
    18:00 -3°C° 0.1 mm 4 m/S 756 mmHg 55%
    19:00 -2°C° 0.1 mm 3 m/S 755 mmHg 55%
    20:00 -2°C° 0.1 mm 3 m/S 755 mmHg 54%
    21:00 -2°C° 0 mm 3 m/S 755 mmHg 53%
    22:00 -2°C° 0 mm 2 m/S 755 mmHg 52%
    23:00 -2°C° 0 mm 2 m/S 755 mmHg 51%

    24 Februar, Sonntag

    Zeit Temperatur Niederschläge Wind Luftdruck Luftfeuchtigkeit
    00:00 -2°C° 0 mm 2 m/S 755 mmHg 55%
    01:00 -2°C° 0 mm 2 m/S 755 mmHg 59%
    02:00 -3°C° 0 mm 2 m/S 754 mmHg 63%
    03:00 -3°C° 0 mm 2 m/S 754 mmHg 67%
    04:00 -3°C° 0 mm 2 m/S 754 mmHg 70%
    05:00 -1°C° 0 mm 1 m/S 754 mmHg 74%
    06:00 -1°C° 0 mm 1 m/S 754 mmHg 76%
    07:00 -3°C° 0 mm 2 m/S 754 mmHg 78%
    08:00 -2°C° 0 mm 2 m/S 754 mmHg 80%
    09:00 -1°C° 0 mm 2 m/S 754 mmHg 79%
    10:00 +1°C° 0 mm 2 m/S 754 mmHg 77%
    11:00 +1°C° 0 mm 3 m/S 754 mmHg 76%
    12:00 +2°C° 0 mm 3 m/S 754 mmHg 80%
    13:00 +2°C° 0 mm 3 m/S 753 mmHg 84%
    14:00 +2°C° 0 mm 3 m/S 753 mmHg 87%
    15:00 +2°C° 0 mm 3 m/S 752 mmHg 89%
    16:00 +2°C° 0 mm 3 m/S 752 mmHg 91%
    17:00 +2°C° 0 mm 3 m/S 751 mmHg 92%
    18:00 +1°C° 0 mm 3 m/S 751 mmHg 93%
    19:00 +1°C° 0 mm 3 m/S 750 mmHg 94%
    20:00 +1°C° 0 mm 3 m/S 750 mmHg 95%
    21:00 -1°C° 0 mm 4 m/S 749 mmHg 95%
    22:00 -1°C° 0 mm 4 m/S 749 mmHg 95%
    23:00 -1°C° 0 mm 4 m/S 748 mmHg 95%
    Mehr zeigen